[[{"header":{"parameterUnit":"m.s-1","parameterCategory":2,"la1":30.2991,"la2":30.254,"lo1":-89.0895,"lo2":-89.0444,"dy":0.0017,"dx":0.0017,"nx":28,"ny":28,"refTime":"2023-10-26T21:00:00:Z","depth":"0","parameterNumber":2,"parameterNumberName":"U-component_of_CURRENTS"},"data":[0,0,0,0,0,0,0,0,0,0,0,0,0,0,0,0,0,0,0,0,0,0,0,0,0,0,0,0,0,0,0,0,0,0,0,0,0,0,0,0,0,0,0,0,0,0,0,0,0,0,0,0,0,0,0,0,0,0,-0.1426,-0.1426,0,-0.1413,-0.1413,-0.1413,-0.1393,-0.1392,-0.1391,-0.1391,-0.147,-0.1472,-0.1475,0,0,0,0,0,0,0,0,0,0,0,0,0,-0.1505,-0.1503,-0.1427,-0.1426,-0.1426,-0.1412,-0.1413,-0.1413,-0.1393,-0.1392,-0.1391,-0.139,-0.1469,-0.1472,-0.1475,0,0,0,0,0,0,0,0,0,0,0,0,0,-0.1482,-0.1503,-0.1427,-0.1411,-0.141,-0.1412,-0.1413,-0.1413,-0.1393,-0.1392,-0.1391,-0.139,-0.1468,-0.1472,-0.1476,-0.1521,0,0,-0.1488,-0.149,0,0,0,0,0,0,0,0,-0.1483,-0.1479,-0.1414,-0.1412,-0.141,-0.14,-0.1469,-0.1452,-0.1393,-0.1403,-0.1391,-0.1389,-0.1454,-0.1459,-0.1462,-0.1525,-0.1528,-0.1488,-0.1491,-0.1493,-0.1494,0,0,0,0,0,0,0,-0.1485,-0.148,-0.1424,-0.1414,-0.1411,-0.1429,-0.1424,-0.1466,-0.1438,-0.1402,-0.14,-0.1393,-0.1454,-0.1458,-0.1464,-0.1529,-0.1488,-0.1492,-0.1495,-0.1496,-0.1611,-0.1611,0,0,0,0,0,0,-0.1477,-0.1481,-0.1425,-0.1424,-0.1441,-0.1427,-0.1423,-0.1407,-0.1436,-0.1437,-0.1394,-0.1392,-0.1451,-0.1459,-0.1467,-0.1531,-0.1493,-0.1497,-0.1499,-0.161,-0.1611,-0.1612,0,0,0,0,0,0,-0.1478,-0.1471,-0.1425,-0.145,-0.1445,-0.1426,-0.141,-0.1407,-0.1406,-0.1428,-0.1432,-0.1393,-0.1451,-0.1461,-0.1519,-0.1534,-0.1498,-0.1502,-0.161,-0.1611,-0.1611,-0.1656,0,0,0,0,0,0,-0.148,-0.1472,-0.1474,-0.1449,-0.1443,-0.1434,-0.141,-0.1408,-0.1401,-0.1399,-0.1429,-0.1435,-0.1451,-0.1513,-0.1523,-0.1539,-0.1505,-0.1609,-0.161,-0.1611,-0.1653,-0.1658,-0.1662,0,0,0,0,0,-0.1483,-0.1487,-0.1473,-0.1467,-0.144,-0.1434,-0.1434,-0.142,-0.1402,-0.1413,-0.1439,-0.1434,-0.1525,-0.1518,-0.1529,-0.1547,-0.1608,-0.161,-0.1611,-0.1651,-0.1657,-0.1662,0,0,0,0,0,0,-0.1536,-0.1484,-0.1469,-0.146,-0.145,-0.143,-0.1437,-0.1422,-0.1447,-0.145,-0.1463,-0.1474,-0.1522,-0.1531,-0.1521,-0.1579,-0.1558,-0.1561,-0.1584,-0.159,-0.1594,-0.1589,-0.1509,0,0,0,0,0,-0.1543,-0.1527,-0.149,-0.1492,-0.1478,-0.1457,-0.1455,-0.1446,-0.1454,-0.1462,-0.1483,-0.1507,-0.1538,-0.1561,-0.159,-0.164,-0.1632,-0.1649,-0.1654,-0.1657,-0.1659,-0.166,-0.1665,-0.1616,-0.1616,-0.1616,0,0,-0.1569,-0.1538,-0.1533,-0.1502,-0.1488,-0.1485,-0.1455,-0.1454,-0.1466,-0.1472,-0.1512,-0.1531,-0.1554,-0.1603,-0.1623,-0.1614,-0.1669,-0.1659,-0.1662,-0.1662,-0.1662,-0.1667,-0.1671,-0.1617,-0.1617,-0.1617,0,0,-0.1605,-0.1576,-0.1569,-0.1555,-0.153,-0.1519,-0.1515,-0.1499,-0.1504,-0.1546,-0.1545,-0.1575,-0.1628,-0.1644,-0.1658,-0.1703,-0.169,-0.1704,-0.173,-0.1732,-0.1736,-0.1739,-0.1744,-0.1747,-0.1707,-0.1708,-0.1708,0,-0.1638,-0.1614,-0.1576,-0.1565,-0.1554,-0.153,-0.1528,-0.1539,-0.1554,-0.157,-0.1566,-0.1631,-0.1645,-0.1696,-0.1703,-0.1714,-0.1712,-0.1713,-0.1738,-0.1741,-0.1743,-0.1747,-0.175,-0.171,-0.171,-0.1709,-0.1709,0,-0.1666,-0.1644,-0.1641,-0.1609,-0.1604,-0.1602,-0.159,-0.1605,-0.1606,-0.162,-0.1671,-0.1699,-0.1728,-0.1735,-0.1737,-0.1765,-0.1757,-0.1742,-0.1726,-0.1751,-0.1753,-0.1756,-0.1713,-0.1712,-0.1712,-0.1711,0,0,-0.172,-0.1668,-0.1662,-0.1641,-0.1619,-0.1612,-0.1637,-0.1648,-0.1658,-0.1702,-0.1733,-0.1779,-0.1783,-0.1797,-0.1801,-0.1806,-0.182,-0.1783,-0.1782,-0.1789,-0.1828,-0.1893,-0.1902,-0.181,-0.1811,-0.1811,-0.1825,0,-0.1745,-0.1724,-0.1696,-0.1687,-0.1668,-0.165,-0.1668,-0.1685,-0.1704,-0.174,-0.1779,-0.1817,-0.1811,-0.1823,-0.1831,-0.1828,-0.1827,-0.1818,-0.1801,-0.18,-0.1856,-0.1908,-0.1854,-0.1868,-0.1827,-0.1828,-0.1828,0,-0.176,-0.1742,-0.173,-0.1689,-0.1679,-0.1683,-0.1683,-0.1697,-0.1744,-0.1765,-0.1817,-0.1846,-0.1891,-0.1862,-0.1884,-0.188,-0.1851,-0.1842,-0.1842,-0.1888,-0.1871,-0.1834,-0.1874,-0.1707,-0.1832,-0.1831,-0.1831,0,-0.1781,-0.1749,-0.1737,-0.1726,-0.1699,-0.1696,-0.1688,-0.171,-0.1738,-0.1782,-0.1821,-0.1874,-0.191,-0.1901,-0.1901,-0.1886,-0.1912,-0.1885,-0.1917,-0.1921,-0.1865,-0.1865,-0.1743,-0.1872,-0.1872,-0.1872,-0.1871,0,-0.1788,-0.1771,-0.1743,-0.1733,-0.1723,-0.1701,-0.1713,-0.1706,-0.1755,-0.1814,-0.1834,-0.19,-0.1917,-0.1949,-0.192,-0.1954,-0.1928,-0.1939,-0.1938,-0.1882,-0.1883,-0.1727,-0.1626,-0.1872,-0.1872,-0.1872,-0.1872,0,-0.1783,-0.1772,-0.1745,-0.1725,-0.1722,-0.1706,-0.1724,-0.176,-0.1773,-0.1851,-0.1878,-0.1941,-0.1984,-0.1995,-0.1988,-0.1995,-0.1934,-0.1992,-0.1939,-0.1934,-0.1848,-0.1753,-0.1734,-0.1709,-0.2055,-0.2057,-0.2059,0,-0.177,-0.1758,-0.1734,-0.1751,-0.1738,-0.1736,-0.1765,-0.1769,-0.1825,-0.189,-0.1951,-0.2007,-0.2083,-0.2118,-0.213,-0.2129,-0.1964,-0.2044,-0.2016,-0.1856,-0.1747,-0.1737,-0.1715,-0.1947,-0.1947,-0.1948,-0.1948,0,-0.1734,-0.1725,-0.1707,-0.1751,-0.1773,-0.1815,-0.1853,-0.1895,-0.1933,-0.1989,-0.2077,-0.2133,-0.2199,-0.2218,-0.2217,-0.218,-0.1947,-0.2059,-0.1882,-0.166,-0.1648,-0.1618,-0.1921,-0.1952,-0.1951,-0.1951,-0.1951,-0.1951,-0.1693,-0.1683,-0.1688,-0.1719,-0.1785,-0.1885,-0.188,-0.1972,-0.2031,-0.2061,-0.2149,-0.213,-0.2135,-0.2173,-0.2188,-0.2013,-0.2037,-0.1863,-0.1764,-0.1775,-0.1743,-0.2087,-0.2132,-0.2133,-0.2133,-0.2134,-0.2134,0,-0.1624,-0.1639,-0.168,-0.172,-0.1804,-0.1848,-0.1934,-0.1916,-0.1956,-0.2003,-0.2046,-0.1941,-0.1944,-0.1881,-0.1775,-0.168,-0.1693,-0.153,-0.1414,-0.1412,-0.168,-0.1664,-0.1623,-0.1623,-0.1623,-0.1623,-0.1623,-0.1624,-0.1592,-0.1585,-0.1609,-0.1699,-0.1765,-0.1781,-0.18,-0.1794,-0.1774,-0.1686,-0.1577,-0.1557,-0.1379,-0.128,-0.1146,-0.1155,-0.1042,-0.1074,-0.1045,-0.1084,-0.1104,-0.1124,-0.1083,-0.0921,-0.092,-0.0807,-0.0804,-0.0802]},{"header":{"parameterUnit":"m.s-1","parameterCategory":2,"la1":30.2991,"la2":30.254,"lo1":-89.0895,"lo2":-89.0444,"dy":0.0017,"dx":0.0017,"nx":28,"ny":28,"refTime":"2023-10-26T21:00:00:Z","depth":"0","parameterNumber":3,"parameterNumberName":"V-component_of_CURRENTS"},"data":[0,0,0,0,0,0,0,0,0,0,0,0,0,0,0,0,0,0,0,0,0,0,0,0,0,0,0,0,0,0,0,0,0,0,0,0,0,0,0,0,0,0,0,0,0,0,0,0,0,0,0,0,0,0,0,0,0,0,-0.0756,-0.0756,0,-0.0787,-0.0788,-0.0788,-0.0813,-0.0813,-0.0813,-0.0813,-0.084,-0.084,-0.0841,0,0,0,0,0,0,0,0,0,0,0,0,0,-0.079,-0.0789,-0.0756,-0.0756,-0.0757,-0.0787,-0.0788,-0.0789,-0.0813,-0.0813,-0.0813,-0.0813,-0.084,-0.084,-0.0841,0,0,0,0,0,0,0,0,0,0,0,0,0,-0.0795,-0.0789,-0.0756,-0.0771,-0.0773,-0.0787,-0.0788,-0.0789,-0.0813,-0.0813,-0.0813,-0.0813,-0.0839,-0.084,-0.0841,-0.0845,0,0,-0.0844,-0.0845,0,0,0,0,0,0,0,0,-0.0795,-0.0794,-0.0769,-0.077,-0.0772,-0.0795,-0.081,-0.0807,-0.0813,-0.0799,-0.0813,-0.0813,-0.0823,-0.0826,-0.0833,-0.0846,-0.0847,-0.0844,-0.0845,-0.0845,-0.0845,0,0,0,0,0,0,0,-0.0794,-0.0793,-0.077,-0.0769,-0.0771,-0.0801,-0.0802,-0.081,-0.0811,-0.08,-0.0802,-0.0803,-0.0824,-0.0832,-0.0834,-0.0847,-0.0844,-0.0845,-0.0846,-0.0846,-0.0841,-0.0841,0,0,0,0,0,0,-0.0783,-0.0792,-0.0769,-0.0771,-0.0782,-0.08,-0.0801,-0.0789,-0.0811,-0.0814,-0.0803,-0.0804,-0.0831,-0.0833,-0.0835,-0.0846,-0.0845,-0.0846,-0.0847,-0.0842,-0.0841,-0.084,0,0,0,0,0,0,-0.0783,-0.078,-0.0768,-0.0782,-0.0783,-0.0799,-0.0786,-0.0789,-0.0793,-0.0813,-0.0816,-0.0802,-0.0831,-0.0834,-0.0844,-0.0847,-0.0847,-0.0847,-0.0843,-0.0842,-0.0841,-0.0863,0,0,0,0,0,0,-0.0784,-0.078,-0.0771,-0.0781,-0.0781,-0.0775,-0.0785,-0.079,-0.0793,-0.0795,-0.0814,-0.0817,-0.0831,-0.0842,-0.0845,-0.0848,-0.0848,-0.0844,-0.0842,-0.0841,-0.0863,-0.0863,-0.0863,0,0,0,0,0,-0.0785,-0.0778,-0.077,-0.0768,-0.0767,-0.0774,-0.0778,-0.0792,-0.0793,-0.0796,-0.0809,-0.0816,-0.0835,-0.0843,-0.0846,-0.085,-0.0844,-0.0843,-0.0841,-0.0864,-0.0863,-0.0863,0,0,0,0,0,0,-0.0814,-0.078,-0.0772,-0.0761,-0.0763,-0.0778,-0.0788,-0.0787,-0.0799,-0.0802,-0.0816,-0.0821,-0.0828,-0.0828,-0.0836,-0.0839,-0.0837,-0.0835,-0.0852,-0.0852,-0.0852,-0.0868,-0.0849,0,0,0,0,0,-0.0808,-0.078,-0.077,-0.0766,-0.0764,-0.0771,-0.0776,-0.0779,-0.079,-0.0796,-0.0813,-0.082,-0.0823,-0.083,-0.0836,-0.0843,-0.0837,-0.0841,-0.0841,-0.0841,-0.0853,-0.0832,-0.0832,-0.0835,-0.0835,-0.0835,0,0,-0.0823,-0.0799,-0.0788,-0.0767,-0.0774,-0.0778,-0.0776,-0.0781,-0.0792,-0.0796,-0.0824,-0.0822,-0.0823,-0.0834,-0.0836,-0.0837,-0.0835,-0.0839,-0.084,-0.0852,-0.083,-0.083,-0.083,-0.0834,-0.0834,-0.0835,0,0,-0.0835,-0.0814,-0.0792,-0.0787,-0.0777,-0.0785,-0.0781,-0.079,-0.0801,-0.0816,-0.0818,-0.0819,-0.0834,-0.0839,-0.084,-0.0837,-0.0832,-0.0828,-0.0849,-0.0828,-0.0828,-0.0828,-0.082,-0.082,-0.0831,-0.0831,-0.0831,0,-0.0857,-0.0821,-0.0796,-0.0782,-0.0785,-0.0786,-0.0787,-0.08,-0.0815,-0.0823,-0.0826,-0.0837,-0.084,-0.0844,-0.0848,-0.084,-0.0829,-0.0855,-0.0829,-0.0829,-0.0829,-0.0821,-0.082,-0.0832,-0.0832,-0.0832,-0.0832,0,-0.0851,-0.0827,-0.0825,-0.0797,-0.0802,-0.0805,-0.0812,-0.0826,-0.0837,-0.0846,-0.0854,-0.0859,-0.0862,-0.0858,-0.0861,-0.0854,-0.0847,-0.0831,-0.0836,-0.083,-0.0822,-0.0821,-0.0833,-0.0833,-0.0833,-0.0833,0,0,-0.0878,-0.0826,-0.0822,-0.081,-0.0805,-0.081,-0.0833,-0.0846,-0.0857,-0.0874,-0.0883,-0.0894,-0.0888,-0.0887,-0.0878,-0.0871,-0.0862,-0.0857,-0.0855,-0.0861,-0.0823,-0.0811,-0.0808,-0.0838,-0.0838,-0.0838,-0.082,0,-0.0881,-0.0845,-0.0826,-0.0825,-0.0815,-0.0825,-0.0847,-0.0861,-0.0876,-0.089,-0.089,-0.0895,-0.0899,-0.0893,-0.0888,-0.0865,-0.0859,-0.0869,-0.0819,-0.0818,-0.0816,-0.0806,-0.0733,-0.071,-0.0818,-0.0818,-0.0818,0,-0.0867,-0.0844,-0.0824,-0.0818,-0.0818,-0.0829,-0.0854,-0.0872,-0.0892,-0.09,-0.0906,-0.0902,-0.0903,-0.0895,-0.0874,-0.0879,-0.0859,-0.0844,-0.0842,-0.0825,-0.0802,-0.0731,-0.0703,-0.058,-0.0815,-0.0816,-0.0816,0,-0.0862,-0.0843,-0.0824,-0.0821,-0.0821,-0.083,-0.0849,-0.0872,-0.0894,-0.09,-0.0908,-0.0903,-0.0897,-0.0876,-0.0864,-0.086,-0.0837,-0.0817,-0.079,-0.0789,-0.0717,-0.071,-0.0574,-0.0797,-0.0797,-0.0797,-0.0797,0,-0.0851,-0.0836,-0.082,-0.0807,-0.0819,-0.0823,-0.0849,-0.0864,-0.0889,-0.092,-0.0908,-0.0924,-0.089,-0.088,-0.0862,-0.0831,-0.0832,-0.0799,-0.0782,-0.0722,-0.0716,-0.0597,-0.0572,-0.0797,-0.0797,-0.0797,-0.0797,0,-0.082,-0.081,-0.079,-0.0792,-0.0804,-0.0809,-0.0858,-0.0893,-0.0898,-0.0933,-0.0935,-0.0933,-0.0917,-0.0891,-0.0852,-0.0825,-0.0738,-0.0783,-0.0727,-0.0704,-0.0556,-0.0536,-0.0483,-0.0445,-0.0738,-0.0738,-0.0738,0,-0.0792,-0.0769,-0.077,-0.0795,-0.0796,-0.0822,-0.0868,-0.0895,-0.0938,-0.0954,-0.098,-0.0956,-0.0973,-0.0909,-0.0824,-0.077,-0.072,-0.0675,-0.0652,-0.054,-0.0504,-0.0527,-0.05,-0.0563,-0.0561,-0.056,-0.0558,0,-0.0733,-0.0728,-0.0717,-0.0786,-0.0831,-0.0889,-0.0947,-0.0977,-0.1022,-0.1042,-0.1076,-0.1077,-0.0978,-0.0871,-0.077,-0.073,-0.0587,-0.0645,-0.0524,-0.036,-0.0378,-0.0335,-0.0597,-0.0545,-0.0547,-0.0548,-0.0548,-0.0549,-0.0691,-0.0683,-0.0706,-0.0779,-0.0863,-0.0977,-0.103,-0.11,-0.1165,-0.1185,-0.1156,-0.1069,-0.0875,-0.0714,-0.0663,-0.041,-0.0504,-0.0334,-0.0323,-0.0359,-0.0308,-0.056,-0.0493,-0.0494,-0.0495,-0.0496,-0.0496,0,-0.0644,-0.0667,-0.0725,-0.0838,-0.0977,-0.1006,-0.1114,-0.1172,-0.1264,-0.1169,-0.1174,-0.0823,-0.0671,-0.044,-0.0147,-0.0059,-0.0072,-0.0023,0.0007,0.0015,-0.0174,-0.0146,-0.0005,-0.0005,-0.0005,-0.0005,-0.0005,-0.0006,-0.063,-0.0653,-0.0702,-0.0926,-0.1034,-0.1186,-0.1246,-0.1308,-0.125,-0.1061,-0.0768,-0.0534,-0.0139,0.0079,0.0313,0.0296,0.0345,0.0288,0.0288,0.0231,0.0205,0.018,0.0218,0.0433,0.0433,0.0502,0.0503,0.0504]}],[{"header":{"parameterUnit":"m.s-1","parameterCategory":2,"la1":30.2991,"la2":30.254,"lo1":-89.0895,"lo2":-89.0444,"dy":0.0017,"dx":0.0017,"nx":28,"ny":28,"refTime":"2023-10-26T21:00:00:Z","depth":"2","parameterNumber":2,"parameterNumberName":"U-component_of_CURRENTS"},"data":[0,0,0,0,0,0,0,0,0,0,0,0,0,0,0,0,0,0,0,0,0,0,0,0,0,0,0,0,0,0,0,0,0,0,0,0,0,0,0,0,0,0,0,0,0,0,0,0,0,0,0,0,0,0,0,0,0,0,-0.0057,-0.0057,0,-0.0051,-0.0051,-0.0052,-0.0081,-0.0081,-0.0081,-0.0082,-0.0023,-0.0021,-0.0019,0,0,0,0,0,0,0,0,0,0,0,0,0,-0.0182,-0.0179,-0.0057,-0.0057,-0.0056,-0.0051,-0.0051,-0.0052,-0.0081,-0.0081,-0.0081,-0.0082,-0.0023,-0.0021,-0.0019,0,0,0,0,0,0,0,0,0,0,0,0,0,-0.0152,-0.0178,-0.0058,-0.0066,-0.0066,-0.0051,-0.0052,-0.0052,-0.008,-0.0081,-0.0081,-0.0082,-0.0024,-0.0021,-0.0019,0.0008,0,0,-0.001,-0.0009,0,0,0,0,0,0,0,0,-0.0153,-0.0148,-0.0065,-0.0065,-0.0065,-0.0062,-0.0073,-0.0027,-0.008,-0.0081,-0.0082,-0.0082,-0.0027,-0.0024,-0.0031,0.0011,0.0014,-0.001,-0.0008,-0.0007,-0.0006,0,0,0,0,0,0,0,-0.0155,-0.0149,-0.0061,-0.0064,-0.0064,-0.0099,-0.0095,-0.0066,-0.0055,-0.0081,-0.0082,-0.0072,-0.0028,-0.0033,-0.0029,0.0014,-0.001,-0.0007,-0.0006,-0.0005,0.0016,0.0015,0,0,0,0,0,0,-0.0139,-0.015,-0.0061,-0.006,-0.0105,-0.0096,-0.0092,-0.0067,-0.0056,-0.0054,-0.0071,-0.0073,-0.0038,-0.0032,-0.0027,-0.0054,-0.0007,-0.0004,-0.0003,0.0017,0.0015,0.0014,0,0,0,0,0,0,-0.0141,-0.013,-0.0061,-0.0102,-0.0095,-0.0092,-0.0065,-0.0067,-0.0113,-0.0048,-0.0046,-0.0119,-0.0038,-0.0031,-0.0013,-0.005,-0.0003,-0.0,0.0018,0.0016,0.0015,-0.0069,0,0,0,0,0,0,-0.0145,-0.0131,-0.0123,-0.01,-0.0091,-0.0063,-0.0064,-0.0066,-0.01,-0.0104,-0.0088,-0.0081,-0.0038,-0.0017,-0.001,-0.0045,0.0002,0.002,0.0017,0.0015,-0.0065,-0.0074,-0.0081,0,0,0,0,0,-0.0149,-0.0133,-0.0122,-0.0112,-0.0074,-0.0063,-0.0063,-0.0068,-0.0103,-0.0116,-0.0102,-0.0083,-0.0027,-0.0015,-0.0007,-0.0042,0.0021,0.0018,0.0016,-0.0062,-0.0072,-0.0081,0,0,0,0,0,0,-0.0186,-0.0132,-0.0121,-0.0089,-0.008,-0.0066,-0.0065,-0.0098,-0.0105,-0.0105,-0.0083,-0.0073,-0.0082,-0.0045,-0.0034,-0.0043,-0.0007,-0.0007,-0.0068,-0.0078,-0.0086,-0.0071,0.0004,0,0,0,0,0,-0.0185,-0.0161,-0.0122,-0.0105,-0.0086,-0.0093,-0.0098,-0.0104,-0.0098,-0.0107,-0.0122,-0.0107,-0.0081,-0.0066,-0.0046,-0.0036,-0.0025,-0.0058,-0.0066,-0.0073,-0.0056,-0.0071,-0.0079,0.0006,0.0006,0.0006,0,0,-0.02,-0.0164,-0.0155,-0.0113,-0.0096,-0.0101,-0.0099,-0.0099,-0.0132,-0.0092,-0.0159,-0.0144,-0.0088,-0.0084,-0.0085,-0.0057,-0.0099,-0.0076,-0.0083,-0.0061,-0.0075,-0.0083,-0.009,0.0004,0.0004,0.0005,0,0,-0.0212,-0.0172,-0.0155,-0.0152,-0.0123,-0.0119,-0.0135,-0.0152,-0.0173,-0.0205,-0.0194,-0.0199,-0.019,-0.0157,-0.0129,-0.0168,-0.0152,-0.0178,-0.0191,-0.0208,-0.0215,-0.022,-0.0252,-0.026,-0.0169,-0.0169,-0.0169,0,-0.0228,-0.0208,-0.0157,-0.0151,-0.0158,-0.0142,-0.0157,-0.0168,-0.0205,-0.0196,-0.0232,-0.0227,-0.022,-0.0168,-0.0196,-0.0189,-0.0194,-0.016,-0.0219,-0.0224,-0.0228,-0.0259,-0.0266,-0.0173,-0.0173,-0.0172,-0.0172,0,-0.0238,-0.0235,-0.0224,-0.021,-0.021,-0.0219,-0.0207,-0.0245,-0.0284,-0.0275,-0.0277,-0.0271,-0.0256,-0.0275,-0.0247,-0.0265,-0.0261,-0.0241,-0.0195,-0.0242,-0.0272,-0.0278,-0.018,-0.0178,-0.0177,-0.0176,0,0,-0.0232,-0.0232,-0.0235,-0.0224,-0.0248,-0.0221,-0.0276,-0.0261,-0.0278,-0.0302,-0.0317,-0.0305,-0.0297,-0.0268,-0.0257,-0.0273,-0.0355,-0.0277,-0.0276,-0.0311,-0.0405,-0.0559,-0.058,-0.0346,-0.0347,-0.0348,-0.0426,0,-0.0257,-0.027,-0.0273,-0.0288,-0.0283,-0.0292,-0.0349,-0.0332,-0.0339,-0.0354,-0.029,-0.0293,-0.0287,-0.0303,-0.0315,-0.0336,-0.0369,-0.0336,-0.035,-0.0351,-0.0484,-0.0592,-0.0336,-0.0398,-0.0432,-0.0433,-0.0434,0,-0.0272,-0.027,-0.0316,-0.0309,-0.0304,-0.0339,-0.0363,-0.0391,-0.0374,-0.0383,-0.034,-0.0305,-0.0296,-0.0322,-0.0351,-0.0329,-0.0383,-0.0404,-0.0407,-0.0516,-0.0517,-0.0349,-0.0407,-0.0444,-0.0443,-0.0442,-0.0442,0,-0.0264,-0.0281,-0.0318,-0.0329,-0.0349,-0.0373,-0.0383,-0.0402,-0.0391,-0.0386,-0.0388,-0.0342,-0.036,-0.0374,-0.0436,-0.0398,-0.0502,-0.0448,-0.0623,-0.0634,-0.0401,-0.0392,-0.05,-0.05,-0.05,-0.05,-0.0499,0,-0.028,-0.0287,-0.0323,-0.0318,-0.0373,-0.0365,-0.0383,-0.0428,-0.0423,-0.0418,-0.0385,-0.0416,-0.0384,-0.0424,-0.0455,-0.059,-0.0522,-0.0656,-0.0677,-0.0432,-0.0426,-0.0433,-0.0424,-0.0503,-0.0502,-0.0501,-0.0501,0,-0.0295,-0.0316,-0.034,-0.0363,-0.0375,-0.0413,-0.0385,-0.0377,-0.0411,-0.0429,-0.0425,-0.0454,-0.0564,-0.0556,-0.0632,-0.0661,-0.0741,-0.0811,-0.0554,-0.0549,-0.0844,-0.0838,-0.0981,-0.0988,-0.0993,-0.0998,-0.1002,0,-0.0326,-0.0342,-0.0386,-0.0412,-0.0435,-0.0443,-0.0457,-0.042,-0.0415,-0.0481,-0.0509,-0.0597,-0.0735,-0.0887,-0.0924,-0.1014,-0.095,-0.0829,-0.0734,-0.0894,-0.0899,-0.0884,-0.0872,-0.0436,-0.0435,-0.0434,-0.0433,0,-0.0379,-0.0414,-0.0434,-0.0505,-0.0517,-0.0485,-0.0491,-0.0491,-0.0489,-0.0563,-0.0728,-0.084,-0.0981,-0.0971,-0.1079,-0.1081,-0.0788,-0.0829,-0.1016,-0.0416,-0.0403,-0.0402,-0.0401,-0.0425,-0.0426,-0.0426,-0.0427,-0.0427,-0.0456,-0.0518,-0.0557,-0.0609,-0.0621,-0.0614,-0.0589,-0.0606,-0.0674,-0.08,-0.0911,-0.0991,-0.0913,-0.1022,-0.1025,-0.0931,-0.1025,-0.0794,-0.0783,-0.0777,-0.0763,-0.0767,-0.0852,-0.0855,-0.0858,-0.086,-0.0862,0,-0.054,-0.0582,-0.064,-0.0688,-0.0684,-0.0659,-0.0667,-0.0622,-0.0768,-0.0852,-0.103,-0.0894,-0.089,-0.0769,-0.064,-0.072,-0.0605,-0.0614,-0.0315,-0.0323,-0.033,-0.0282,-0.025,-0.0249,-0.0249,-0.0249,0,0,-0.0582,-0.0651,-0.0669,-0.0735,-0.0744,-0.071,-0.0712,-0.0725,-0.0725,-0.0827,-0.0792,-0.0929,-0.075,-0.0515,-0.0466,-0.0298,-0.0328,-0.0291,-0.0755,-0.0406,-0.0414,-0.0385,-0.0319,0,0,0,0,0]},{"header":{"parameterUnit":"m.s-1","parameterCategory":2,"la1":30.2991,"la2":30.254,"lo1":-89.0895,"lo2":-89.0444,"dy":0.0017,"dx":0.0017,"nx":28,"ny":28,"refTime":"2023-10-26T21:00:00:Z","depth":"2","parameterNumber":3,"parameterNumberName":"V-component_of_CURRENTS"},"data":[0,0,0,0,0,0,0,0,0,0,0,0,0,0,0,0,0,0,0,0,0,0,0,0,0,0,0,0,0,0,0,0,0,0,0,0,0,0,0,0,0,0,0,0,0,0,0,0,0,0,0,0,0,0,0,0,0,0,0.0283,0.028,0,0.0082,0.008,0.0078,-0.0047,-0.0047,-0.0048,-0.0049,-0.0087,-0.0087,-0.0087,0,0,0,0,0,0,0,0,0,0,0,0,0,0.0347,0.0348,0.0283,0.028,0.0277,0.0082,0.008,0.0077,-0.0046,-0.0047,-0.0049,-0.005,-0.0087,-0.0087,-0.0087,0,0,0,0,0,0,0,0,0,0,0,0,0,0.0253,0.0348,0.0283,0.019,0.018,0.0083,0.0079,0.0076,-0.0046,-0.0047,-0.0049,-0.005,-0.0087,-0.0087,-0.0087,-0.0062,0,0,-0.0088,-0.0088,0,0,0,0,0,0,0,0,0.0259,0.0251,0.0207,0.0197,0.0185,0.0039,0.0087,0.0037,-0.0046,0.0042,-0.0049,-0.0051,-0.003,-0.0035,-0.0069,-0.0064,-0.0065,-0.0088,-0.0088,-0.0088,-0.0088,0,0,0,0,0,0,0,0.0266,0.0258,0.0206,0.0204,0.019,0.0085,0.0073,0.0076,0.0021,0.0035,0.0025,-0.0002,-0.0035,-0.0068,-0.007,-0.0066,-0.0088,-0.0088,-0.0088,-0.0088,-0.0141,-0.0143,0,0,0,0,0,0,0.0298,0.0266,0.0212,0.02,0.0216,0.0086,0.0072,0.0089,0.0017,0.0003,-0.0,-0.0007,-0.0067,-0.007,-0.0072,-0.0107,-0.0088,-0.0088,-0.0089,-0.014,-0.0142,-0.0143,0,0,0,0,0,0,0.0301,0.0297,0.022,0.0222,0.0205,0.0088,0.0107,0.0086,-0.0011,-0.0012,-0.0023,-0.0083,-0.0068,-0.0071,-0.0087,-0.0107,-0.0089,-0.0089,-0.0139,-0.0141,-0.0142,-0.0137,0,0,0,0,0,0,0.0305,0.0301,0.0314,0.0227,0.0206,0.0146,0.0107,0.0083,-0.0022,-0.0034,-0.0084,-0.0086,-0.007,-0.0086,-0.0087,-0.0107,-0.0089,-0.0137,-0.014,-0.0142,-0.0136,-0.0139,-0.0141,0,0,0,0,0,0.0309,0.0328,0.0317,0.0309,0.0234,0.0144,0.0124,0.0035,-0.0025,-0.006,-0.0084,-0.0088,-0.0103,-0.0087,-0.0087,-0.0108,-0.0136,-0.0139,-0.0142,-0.0135,-0.0138,-0.0141,0,0,0,0,0,0,0.0333,0.0314,0.0301,0.0307,0.0227,0.0122,0.0081,-0.0001,-0.0058,-0.0073,-0.0089,-0.009,-0.0115,-0.0117,-0.01,-0.0134,-0.0127,-0.013,-0.0122,-0.0125,-0.0127,-0.0125,-0.0089,0,0,0,0,0,0.0358,0.038,0.0314,0.0306,0.0279,0.0166,0.0109,0.0038,-0.0024,-0.0059,-0.0108,-0.0132,-0.012,-0.0128,-0.0131,-0.0141,-0.0138,-0.0163,-0.0165,-0.0167,-0.0169,-0.0173,-0.0176,-0.0152,-0.0152,-0.0152,0,0,0.0355,0.035,0.0354,0.0313,0.025,0.0176,0.0127,0.0031,-0.0041,-0.0043,-0.0151,-0.0147,-0.0127,-0.0134,-0.0148,-0.0141,-0.0173,-0.0171,-0.0172,-0.0173,-0.0176,-0.0178,-0.018,-0.0154,-0.0154,-0.0154,0,0,0.0343,0.0366,0.0367,0.0297,0.0207,0.0156,0.0113,-0.0018,-0.007,-0.0146,-0.0157,-0.0165,-0.0205,-0.0177,-0.0161,-0.0186,-0.0189,-0.021,-0.0215,-0.0219,-0.022,-0.0221,-0.0214,-0.0215,-0.0208,-0.0208,-0.0208,0,0.0327,0.0322,0.0336,0.0278,0.0209,0.0137,0.0056,0.0003,-0.0134,-0.0139,-0.018,-0.0213,-0.0215,-0.0171,-0.0185,-0.0189,-0.0195,-0.0195,-0.0219,-0.0221,-0.0222,-0.0214,-0.0215,-0.0208,-0.0208,-0.0208,-0.0208,0,0.0295,0.0253,0.023,0.0169,0.0116,0.0022,-0.0036,-0.0099,-0.0168,-0.0204,-0.0217,-0.0215,-0.0229,-0.0232,-0.0214,-0.0217,-0.0219,-0.0221,-0.0203,-0.0223,-0.0215,-0.0216,-0.0209,-0.0209,-0.0209,-0.0209,0,0,0.0296,0.023,0.0202,0.0159,0.0034,-0.0003,-0.0077,-0.0122,-0.0159,-0.0222,-0.0245,-0.0229,-0.0235,-0.0221,-0.021,-0.021,-0.0226,-0.023,-0.023,-0.0209,-0.0236,-0.0186,-0.0182,-0.0237,-0.0237,-0.0237,-0.0223,0,0.0226,0.0147,0.0123,0.0001,-0.0063,-0.0118,-0.018,-0.0213,-0.0237,-0.0266,-0.0205,-0.0224,-0.0224,-0.0238,-0.0233,-0.0232,-0.023,-0.023,-0.0233,-0.0232,-0.0174,-0.0181,-0.0057,-0.0031,-0.0224,-0.0224,-0.0224,0,0.0159,0.0118,0.0017,-0.0067,-0.0094,-0.0172,-0.0225,-0.0284,-0.028,-0.0295,-0.0267,-0.0246,-0.0224,-0.0245,-0.0234,-0.0241,-0.025,-0.0242,-0.0241,-0.0197,-0.0184,-0.0046,-0.0024,-0.0225,-0.0225,-0.0225,-0.0225,0,0.0171,0.0035,-0.0021,-0.0078,-0.0178,-0.0216,-0.0263,-0.0298,-0.0311,-0.031,-0.0312,-0.0276,-0.0277,-0.0273,-0.0272,-0.0268,-0.0263,-0.0251,-0.0198,-0.0194,-0.0089,-0.0075,-0.0251,-0.0251,-0.0251,-0.0251,-0.0251,0,0.0104,0.0034,-0.0034,-0.0069,-0.0171,-0.0224,-0.0281,-0.0331,-0.0354,-0.0357,-0.033,-0.0328,-0.0296,-0.0277,-0.0275,-0.0239,-0.0271,-0.0197,-0.0188,-0.0084,-0.0071,-0.0244,-0.0243,-0.0251,-0.0251,-0.0251,-0.0251,0,0.0079,0.004,-0.0048,-0.0133,-0.017,-0.0248,-0.0312,-0.0334,-0.0375,-0.0385,-0.0384,-0.0362,-0.0354,-0.0307,-0.0299,-0.0243,-0.0217,-0.0202,-0.0076,-0.0052,-0.0139,-0.0139,-0.0119,-0.0117,-0.0115,-0.0114,-0.0113,0,0.0053,0.0017,-0.0073,-0.0132,-0.0195,-0.0281,-0.0333,-0.0369,-0.0389,-0.0408,-0.0413,-0.039,-0.0368,-0.03,-0.0186,-0.0121,-0.0208,0.0005,0.0046,-0.0132,-0.0126,-0.0128,-0.013,0.0189,0.0192,0.0195,0.0197,0,-0.0007,-0.0028,-0.0067,-0.0185,-0.026,-0.0314,-0.0385,-0.0399,-0.0433,-0.0443,-0.0474,-0.0448,-0.0316,-0.0151,-0.0032,0.001,0.0013,0.0067,-0.0154,0.0132,0.0158,0.0164,0.0152,0.0223,0.022,0.0218,0.0217,0.0216,-0.0067,-0.0112,-0.0141,-0.0266,-0.0343,-0.0398,-0.0437,-0.0461,-0.0496,-0.0501,-0.0467,-0.0347,-0.0143,0.0128,0.0137,0.0182,0.0195,0.0239,0.0231,0.0219,0.0248,0.0275,0.0368,0.0366,0.0365,0.0364,0.0362,0,-0.0135,-0.0147,-0.0225,-0.0345,-0.0425,-0.0446,-0.0509,-0.0513,-0.0571,-0.0437,-0.041,-0.0136,0.0108,0.0215,0.0384,0.044,0.041,0.0377,0.0373,0.0356,0.0338,0.0369,0.0523,0.0521,0.0519,0.0518,0,0,-0.0167,-0.0217,-0.0235,-0.0404,-0.0483,-0.0576,-0.0617,-0.062,-0.0533,-0.0427,-0.0241,0.0078,0.0279,0.0411,0.048,0.0494,0.0368,0.0465,0.0373,0.0354,0.0331,0.0343,0.0383,0,0,0,0,0]}],[{"header":{"parameterUnit":"m.s-1","parameterCategory":2,"la1":30.2991,"la2":30.254,"lo1":-89.0895,"lo2":-89.0444,"dy":0.0017,"dx":0.0017,"nx":28,"ny":28,"refTime":"2023-10-26T21:00:00:Z","depth":"4","parameterNumber":2,"parameterNumberName":"U-component_of_CURRENTS"},"data":[0,0,0,0,0,0,0,0,0,0,0,0,0,0,0,0,0,0,0,0,0,0,0,0,0,0,0,0,0,0,0,0,0,0,0,0,0,0,0,0,0,0,0,0,0,0,0,0,0,0,0,0,0,0,0,0,0,0,-0.0202,-0.0202,0,-0.0198,-0.0197,-0.0197,-0.0183,-0.0183,-0.0183,-0.0183,-0.013,-0.0128,-0.0126,0,0,0,0,0,0,0,0,0,0,0,0,0,-0.0083,-0.0086,-0.0202,-0.0202,-0.0203,-0.0198,-0.0197,-0.0196,-0.0182,-0.0183,-0.0183,-0.0183,-0.013,-0.0128,-0.0126,0,0,0,0,0,0,0,0,0,0,0,0,0,-0.0107,-0.0087,-0.0201,-0.0199,-0.0199,-0.0198,-0.0197,-0.0196,-0.0182,-0.0183,-0.0183,-0.0183,-0.0131,-0.0128,-0.0126,-0.0104,0,0,-0.0118,-0.0117,0,0,0,0,0,0,0,0,-0.0106,-0.0111,-0.0199,-0.02,-0.02,-0.0196,-0.0136,-0.0165,-0.0182,-0.0183,-0.0183,-0.0184,-0.0151,-0.0147,-0.0138,-0.0102,-0.0099,-0.0118,-0.0117,-0.0116,-0.0115,0,0,0,0,0,0,0,-0.0104,-0.011,-0.0194,-0.02,-0.02,-0.016,-0.0164,-0.0141,-0.0159,-0.0183,-0.0183,-0.0192,-0.015,-0.014,-0.0136,-0.0099,-0.0118,-0.0116,-0.0115,-0.0114,-0.0041,-0.0041,0,0,0,0,0,0,-0.0123,-0.011,-0.0194,-0.0195,-0.0159,-0.0163,-0.0167,-0.0192,-0.0161,-0.0159,-0.0192,-0.0191,-0.0144,-0.0139,-0.0134,-0.0092,-0.0116,-0.0113,-0.0112,-0.0041,-0.0041,-0.004,0,0,0,0,0,0,-0.0121,-0.0131,-0.0195,-0.0155,-0.0161,-0.0166,-0.0193,-0.0192,-0.0184,-0.0169,-0.0165,-0.0186,-0.0144,-0.0138,-0.0106,-0.0091,-0.0112,-0.011,-0.0042,-0.0041,-0.0041,-0.0018,0,0,0,0,0,0,-0.0118,-0.0131,-0.0138,-0.0157,-0.0165,-0.0192,-0.0193,-0.0192,-0.0192,-0.0191,-0.0163,-0.0158,-0.0144,-0.011,-0.0104,-0.0088,-0.0108,-0.0043,-0.0042,-0.0041,-0.0019,-0.0016,-0.0014,0,0,0,0,0,-0.0113,-0.0128,-0.0139,-0.0148,-0.0181,-0.0193,-0.0191,-0.019,-0.0191,-0.0183,-0.0162,-0.0159,-0.01,-0.0107,-0.01,-0.0083,-0.0043,-0.0042,-0.0041,-0.002,-0.0017,-0.0014,0,0,0,0,0,0,-0.0069,-0.0129,-0.0141,-0.017,-0.0181,-0.0192,-0.0187,-0.019,-0.0167,-0.0166,-0.0146,-0.0139,-0.0105,-0.01,-0.0108,-0.0062,-0.0074,-0.0071,-0.0061,-0.0057,-0.0055,-0.008,-0.0106,0,0,0,0,0,-0.0069,-0.01,-0.0137,-0.0155,-0.0167,-0.0176,-0.0176,-0.0182,-0.0176,-0.0167,-0.0145,-0.0123,-0.0095,-0.0082,-0.0058,-0.003,-0.0043,-0.0018,-0.0015,-0.0013,-0.003,-0.0027,-0.0026,-0.0037,-0.0037,-0.0037,0,0,-0.005,-0.0091,-0.0103,-0.0147,-0.0156,-0.0167,-0.0175,-0.0185,-0.0178,-0.0163,-0.0132,-0.011,-0.0085,-0.0051,-0.0037,-0.0045,-0.0016,-0.0012,-0.001,-0.0028,-0.0025,-0.0025,-0.0024,-0.0036,-0.0036,-0.0036,0,0,-0.004,-0.0074,-0.0097,-0.0116,-0.0149,-0.0155,-0.0161,-0.0173,-0.0162,-0.0138,-0.0121,-0.0094,-0.0053,-0.0032,-0.0016,0.0012,0.0,0.002,0.0013,0.0017,0.0018,0.0018,0.0006,0.0005,0.0018,0.0018,0.0018,0,-0.0013,-0.0062,-0.0096,-0.0125,-0.0139,-0.0152,-0.0167,-0.0154,-0.0145,-0.0132,-0.0127,-0.0071,-0.0045,-0.001,0.0002,0.0018,0.0008,0.0003,0.002,0.002,0.002,0.0007,0.0006,0.0019,0.0019,0.0019,0.0019,0,-0.0025,-0.006,-0.0073,-0.0121,-0.013,-0.0146,-0.0154,-0.0139,-0.0128,-0.0117,-0.0081,-0.0049,-0.0025,-0.0003,0.0011,0.0028,0.0017,0.0026,0.0011,0.0022,0.0008,0.0006,0.0021,0.0021,0.002,0.002,0,0,0.0021,-0.0067,-0.007,-0.01,-0.0137,-0.0149,-0.0132,-0.0125,-0.011,-0.0089,-0.0074,-0.002,-0.0019,-0.0004,0.0016,0.0021,0.0026,0.0019,0.0019,0.0003,0.0017,0.0021,0.0019,0.0037,0.0037,0.0037,0.0008,0,0.0024,-0.0037,-0.0075,-0.0104,-0.0135,-0.0146,-0.0128,-0.0118,-0.0097,-0.0076,-0.0053,-0.003,-0.0015,-0.0007,0.0003,0.0016,0.0021,0.0031,0.0009,0.0008,0.0008,0.0017,0.0036,0.0006,0.0006,0.0005,0.0005,0,0.0026,-0.0024,-0.0063,-0.012,-0.0131,-0.0137,-0.0126,-0.0114,-0.0084,-0.0076,-0.0062,-0.0047,-0.0038,-0.0026,-0.0017,-0.0015,-0.0003,0.0007,0.0007,-0.0004,0.0009,-0.0008,0.0001,0.0002,0.0002,0.0002,0.0002,0,0.0066,-0.0011,-0.0045,-0.0065,-0.0118,-0.0121,-0.013,-0.0106,-0.0102,-0.0085,-0.009,-0.0072,-0.0077,-0.0063,-0.0045,-0.0035,-0.0042,-0.0021,-0.0007,-0.0008,-0.0014,-0.0014,-0.0013,-0.0013,-0.0013,-0.0013,-0.0013,0,0.0077,0.005,-0.0034,-0.0051,-0.0075,-0.0112,-0.0106,-0.0109,-0.0115,-0.0104,-0.0099,-0.0088,-0.0087,-0.0083,-0.0062,-0.0052,-0.0057,-0.0019,-0.0014,-0.0003,-0.0001,-0.0015,-0.0015,-0.0014,-0.0014,-0.0014,-0.0014,0,0.0126,0.0072,0.0029,-0.0038,-0.0061,-0.007,-0.0121,-0.0112,-0.0129,-0.0123,-0.0131,-0.0124,-0.0113,-0.0113,-0.0093,-0.0079,-0.0062,-0.0051,-0.0061,-0.0055,-0.0029,-0.0027,-0.0047,-0.0047,-0.0047,-0.0047,-0.0047,0,0.0137,0.0118,0.0048,0.002,-0.0015,-0.0048,-0.0061,-0.0105,-0.0099,-0.012,-0.011,-0.0123,-0.0105,-0.0092,-0.0084,-0.008,-0.0061,-0.0071,-0.0031,-0.0039,-0.0032,-0.003,-0.0028,-0.0047,-0.0047,-0.0047,-0.0047,0,0.016,0.0149,0.012,0.0065,0.003,-0.0012,-0.004,-0.0052,-0.0077,-0.0104,-0.0085,-0.0085,-0.0076,-0.0063,-0.0082,-0.006,-0.0078,-0.0072,-0.0071,-0.0033,-0.0039,-0.0032,-0.003,-0.0047,-0.0047,-0.0047,-0.0047,0,0.019,0.0185,0.0151,0.0104,0.0069,0.0033,0.0004,-0.001,-0.0028,-0.006,-0.0037,-0.0045,-0.0052,-0.0051,-0.0046,-0.0059,-0.0041,-0.0032,-0.0032,-0.0032,-0.0014,-0.0019,-0.0024,0,0,0,0,0,0.0199,0.0194,0.017,0.0127,0.0104,0.0071,0.0026,0.0002,-0.0023,-0.0005,-0.0033,-0.0014,-0.0025,-0.0016,-0.0024,-0.0041,-0.0049,-0.0051,-0.0039,-0.0048,-0.0048,-0.0028,0,0,0,0,0,0,0.0205,0.0194,0.0186,0.0163,0.014,0.0106,0.0075,0.0042,0.0055,0.003,0.0034,0.0007,0.0007,-0.0009,-0.001,-0.0016,-0.0006,-0.0061,-0.0061,-0.0049,-0.0048,-0.0048,-0.0028,0,0,0,0,0]},{"header":{"parameterUnit":"m.s-1","parameterCategory":2,"la1":30.2991,"la2":30.254,"lo1":-89.0895,"lo2":-89.0444,"dy":0.0017,"dx":0.0017,"nx":28,"ny":28,"refTime":"2023-10-26T21:00:00:Z","depth":"4","parameterNumber":3,"parameterNumberName":"V-component_of_CURRENTS"},"data":[0,0,0,0,0,0,0,0,0,0,0,0,0,0,0,0,0,0,0,0,0,0,0,0,0,0,0,0,0,0,0,0,0,0,0,0,0,0,0,0,0,0,0,0,0,0,0,0,0,0,0,0,0,0,0,0,0,0,0.0402,0.0402,0,0.0387,0.0387,0.0387,0.0376,0.0376,0.0376,0.0376,0.0333,0.0332,0.0331,0,0,0,0,0,0,0,0,0,0,0,0,0,0.0397,0.0397,0.0402,0.0402,0.0402,0.0387,0.0387,0.0386,0.0376,0.0376,0.0376,0.0376,0.0334,0.0332,0.0331,0,0,0,0,0,0,0,0,0,0,0,0,0,0.0391,0.0397,0.0402,0.0396,0.0396,0.0387,0.0387,0.0386,0.0376,0.0376,0.0376,0.0376,0.0334,0.0332,0.033,0.0316,0,0,0.0325,0.0324,0,0,0,0,0,0,0,0,0.0391,0.0391,0.0397,0.0396,0.0396,0.0385,0.037,0.0362,0.0376,0.0381,0.0376,0.0376,0.0349,0.0346,0.034,0.0314,0.0312,0.0325,0.0323,0.0323,0.0322,0,0,0,0,0,0,0,0.0392,0.0391,0.0394,0.0397,0.0396,0.0387,0.0386,0.0368,0.0362,0.038,0.038,0.0382,0.0349,0.0342,0.0339,0.0311,0.0325,0.0323,0.0322,0.0321,0.0302,0.0302,0,0,0,0,0,0,0.0399,0.0392,0.0394,0.0393,0.0396,0.0387,0.0386,0.0387,0.0363,0.036,0.0382,0.0382,0.0345,0.0341,0.0338,0.0344,0.0323,0.0321,0.032,0.0301,0.0302,0.0303,0,0,0,0,0,0,0.0399,0.0399,0.0395,0.0394,0.0393,0.0387,0.0388,0.0386,0.0386,0.0365,0.0361,0.0384,0.0345,0.034,0.0319,0.0342,0.032,0.0318,0.03,0.0301,0.0302,0.0342,0,0,0,0,0,0,0.0399,0.0399,0.0407,0.0394,0.0393,0.0397,0.0388,0.0386,0.0387,0.0387,0.0365,0.0361,0.0345,0.0322,0.0317,0.0339,0.0317,0.03,0.0301,0.0302,0.034,0.0344,0.0347,0,0,0,0,0,0.0398,0.0406,0.0407,0.0408,0.0403,0.0398,0.0396,0.0391,0.0387,0.039,0.0367,0.0362,0.0326,0.032,0.0314,0.0336,0.0299,0.0301,0.0302,0.0338,0.0343,0.0347,0,0,0,0,0,0,0.0406,0.0406,0.0407,0.0414,0.0411,0.0397,0.04,0.0395,0.038,0.0375,0.0355,0.0349,0.0345,0.033,0.0324,0.0335,0.0318,0.0318,0.0347,0.0352,0.0356,0.0341,0.0315,0,0,0,0,0,0.0413,0.042,0.0416,0.0421,0.0422,0.0412,0.0411,0.0404,0.0388,0.0383,0.0369,0.0354,0.0346,0.0339,0.0327,0.0322,0.0318,0.0338,0.0341,0.0345,0.033,0.0334,0.0337,0.0307,0.0307,0.0307,0,0,0.0416,0.0419,0.0421,0.0424,0.042,0.0418,0.0411,0.0408,0.0405,0.0379,0.0371,0.0363,0.0346,0.0345,0.0344,0.0336,0.036,0.0347,0.0349,0.0332,0.0335,0.0338,0.0341,0.0308,0.0308,0.0308,0,0,0.0418,0.0429,0.0431,0.0431,0.043,0.0426,0.0428,0.0417,0.0415,0.0403,0.0391,0.0385,0.0372,0.0364,0.0358,0.0373,0.0379,0.0389,0.0395,0.04,0.0403,0.0404,0.0439,0.0444,0.0392,0.0392,0.0392,0,0.0422,0.0424,0.0431,0.0432,0.0432,0.0431,0.0427,0.0426,0.041,0.0398,0.0405,0.0385,0.0378,0.037,0.0384,0.0381,0.0396,0.038,0.0405,0.0407,0.0408,0.0443,0.0447,0.0394,0.0394,0.0394,0.0393,0,0.042,0.0424,0.0426,0.0428,0.0432,0.0428,0.0429,0.0423,0.0424,0.0416,0.0411,0.0404,0.039,0.0406,0.0398,0.0411,0.0426,0.041,0.0393,0.0413,0.0449,0.0453,0.0397,0.0396,0.0396,0.0395,0,0,0.041,0.0422,0.0421,0.0418,0.0428,0.0423,0.0424,0.0414,0.0397,0.0408,0.0395,0.0403,0.0404,0.0397,0.0404,0.0414,0.0455,0.0422,0.0421,0.0457,0.0497,0.048,0.0483,0.045,0.045,0.0451,0.0532,0,0.0402,0.04,0.0413,0.0407,0.0402,0.0405,0.0401,0.0393,0.0391,0.038,0.0389,0.0393,0.0403,0.0412,0.042,0.0444,0.0461,0.0436,0.047,0.0472,0.0453,0.0484,0.0451,0.0535,0.0536,0.0536,0.0537,0,0.0388,0.0388,0.0387,0.038,0.0378,0.0378,0.0359,0.0357,0.0346,0.0356,0.0361,0.0369,0.04,0.0404,0.0453,0.0443,0.0468,0.0487,0.049,0.0453,0.046,0.0501,0.0543,0.0543,0.0542,0.0542,0.0541,0,0.0365,0.0365,0.0364,0.0364,0.0363,0.0355,0.0351,0.0338,0.0343,0.035,0.0372,0.0381,0.0425,0.0438,0.0498,0.0479,0.0555,0.0528,0.0535,0.0537,0.0509,0.0506,0.0544,0.0544,0.0543,0.0543,0.0543,0,0.0346,0.034,0.0349,0.0346,0.0327,0.0334,0.031,0.0315,0.033,0.0342,0.0368,0.0392,0.0438,0.0486,0.0505,0.0553,0.0568,0.0538,0.0548,0.053,0.0528,0.0514,0.051,0.0546,0.0546,0.0545,0.0544,0,0.0321,0.0332,0.0325,0.0323,0.0319,0.0306,0.0311,0.0289,0.0333,0.0358,0.0383,0.0438,0.0499,0.0547,0.0593,0.0587,0.0613,0.0622,0.0639,0.0649,0.0588,0.0585,0.0618,0.0618,0.0618,0.0618,0.0618,0,0.0304,0.0301,0.031,0.0302,0.0304,0.0284,0.0263,0.029,0.028,0.0376,0.0383,0.0476,0.0505,0.0578,0.0609,0.0658,0.0645,0.0668,0.0578,0.0585,0.0592,0.0589,0.0585,0.0618,0.0618,0.0618,0.0618,0,0.0268,0.0285,0.029,0.028,0.0266,0.024,0.0219,0.0222,0.0262,0.0322,0.039,0.0447,0.0517,0.0553,0.0625,0.064,0.065,0.0666,0.0665,0.058,0.0585,0.0591,0.0588,0.0617,0.0617,0.0617,0.0617,0,0.0244,0.0248,0.0264,0.0258,0.024,0.0206,0.019,0.0186,0.0204,0.0309,0.0325,0.0434,0.0502,0.0546,0.0592,0.0632,0.0598,0.057,0.0573,0.0573,0.052,0.0517,0.0539,0,0,0,0,0,0.0211,0.0229,0.023,0.0227,0.0211,0.0204,0.0166,0.0151,0.0188,0.0231,0.0287,0.035,0.0451,0.0483,0.0514,0.0551,0.0589,0.0581,0.0553,0.0616,0.0616,0.0556,0,0,0,0,0,0,0.0198,0.0204,0.0231,0.0208,0.0204,0.0174,0.0152,0.017,0.0166,0.023,0.0267,0.0349,0.0422,0.0462,0.0526,0.0539,0.0515,0.0644,0.0643,0.0616,0.0616,0.0616,0.0555,0,0,0,0,0]}]]